WA3WZR Weather Reports


time (UTC)temp
F
wind
direction
speed
knots
gust
knots
rain 1hr
in
rain 24hr
in
rain mn
in
humidity
%
barometer
mb
20260509212818 65 267 6.1 11.3 0.00 0.28 0.28 64 1008.0
20260509212318 66 285 1.7 7.8 0.00 0.28 0.28 64 1008.1
20260509211840 66 229 2.6 7.8 0.00 0.28 0.28 65 1008.1
20260509211319 66 211 4.3 7.8 0.00 0.28 0.28 67 1008.2
20260509210817 65 291 1.7 9.6 0.00 0.28 0.28 67 1008.2
20260509210318 65 230 1.7 11.3 0.00 0.28 0.28 66 1008.3
20260509205838 65 200 2.6 9.6 0.00 0.28 0.28 66 1008.3
20260509205317 65 268 1.7 7.8 0.00 0.28 0.28 69 1008.4
20260509204839 65 246 0.9 4.3 0.00 0.28 0.28 70 1008.3
20260509204317 65 200 0.9 4.3 0.00 0.28 0.28 71 1008.4
20260509203816 65 190 1.7 11.3 0.00 0.28 0.28 69 1008.4
20260509203339 65 277 3.5 11.3 0.00 0.28 0.28 69 1008.5
20260509202815 65 257 1.7 7.8 0.00 0.28 0.28 69 1008.5
20260509202332 65 258 3.5 9.6 0.00 0.28 0.28 70 1008.6
20260509201815 65 259 0.9 9.6 0.00 0.28 0.28 70 1008.7
20260509201314 65 165 1.7 7.8 0.00 0.28 0.28 70 1008.6
20260509200815 65 198 3.5 10.4 0.00 0.28 0.28 72 1008.7
20260509200315 65 219 0.9 10.4 0.00 0.28 0.28 72 1008.8
20260509195834 65 111 1.7 7.8 0.00 0.28 0.28 73 1008.7
20260509195334 65 272 2.6 5.2 0.00 0.28 0.28 75 1008.8
20260509194855 64 133 0.9 7.0 0.00 0.28 0.28 76 1008.8
20260509194331 64 279 2.6 7.0 0.00 0.28 0.28 77 1008.9
20260509193831 63 325 0.9 6.1 0.00 0.28 0.28 75 1009.0
20260509193333 63 163 0.9 6.1 0.00 0.28 0.28 75 1009.2
20260509192831 64 304 2.6 7.0 0.00 0.28 0.28 79 1009.4
20260509192351 63 171 0.9 7.8 0.00 0.28 0.28 80 1009.6
20260509191847 63 106 0.0 5.2 0.00 0.28 0.28 80 1009.6
20260509191327 62 147 0.9 7.8 0.00 0.28 0.28 79 1009.6
20260509190828 63 263 2.6 7.8 0.00 0.28 0.28 79 1009.7
20260509190328 63 289 2.6 7.8 0.00 0.28 0.28 82 1009.8
20260509185826 62 155 1.7 4.3 0.00 0.28 0.28 83 1009.8
20260509185325 61 265 1.7 6.1 0.00 0.28 0.28 86 1009.9
20260509184825 61 183 0.9 6.1 0.00 0.28 0.28 86 1009.9
20260509184324 60 107 0.9 5.2 0.00 0.28 0.28 86 1009.9
20260509183822 60 250 0.9 6.1 0.00 0.28 0.28 85 1009.9
20260509183322 60 289 0.9 6.1 0.00 0.28 0.28 86 1009.9
20260509182820 59 194 0.9 6.1 0.00 0.28 0.28 88 1010.0
20260509182320 59 265 0.9 4.3 0.00 0.28 0.28 87 1010.0
20260509181821 59 159 0.0 5.2 0.00 0.28 0.28 87 1010.1
20260509181318 59 276 1.7 6.1 0.00 0.28 0.28 88 1010.0
20260509180838 58 277 1.7 6.1 0.00 0.28 0.28 89 1010.1
20260509180318 58 293 0.0 4.3 0.00 0.28 0.28 89 1010.1
20260509175817 58 275 0.9 5.2 0.00 0.28 0.28 89 1010.1
20260509175317 58 155 0.9 5.2 0.00 0.28 0.28 91 1010.0
20260509174819 57 157 0.0 7.8 0.00 0.28 0.28 91 1010.1
20260509174320 57 175 1.7 7.8 0.00 0.28 0.28 92 1010.0
20260509173819 57 294 0.0 4.3 0.00 0.28 0.28 93 1010.1
20260509173320 57 201 0.0 5.2 0.00 0.28 0.28 93 1010.1
20260509172819 56 198 1.7 7.0 0.00 0.28 0.28 93 1010.0
20260509172320 56 129 0.9 7.0 0.00 0.28 0.28 94 1010.0
20260509171841 56 265 2.6 7.0 0.00 0.28 0.28 94 1009.9
20260509171319 56 244 1.7 6.1 0.00 0.28 0.28 95 1009.9
20260509170819 56 279 3.5 6.1 0.00 0.28 0.28 96 1009.8
20260509170342 56 316 0.9 4.3 0.00 0.28 0.28 97 1009.8
20260509165820 56 277 0.9 4.3 0.00 0.28 0.28 97 1009.7
20260509165319 55 116 0.9 3.5 0.01 0.28 0.28 97 1009.7
20260509164820 55 298 0.0 4.3 0.01 0.28 0.28 97 1009.7
20260509164341 55 112 0.9 4.3 0.01 0.28 0.28 97 1009.7
20260509163819 55 265 0.0 4.3 0.01 0.28 0.28 97 1009.7
20260509163320 55 93 0.0 4.3 0.01 0.28 0.28 97 1009.7
20260509162818 54 165 0.0 4.3 0.01 0.28 0.28 97 1009.7
20260509162339 54 321 0.0 5.2 0.01 0.28 0.28 97 1009.6
20260509161820 54 149 1.7 5.2 0.01 0.28 0.28 97 1009.6
20260509161320 54 9 1.7 5.2 0.01 0.28 0.28 98 1009.5
20260509160821 54 240 0.0 3.5 0.01 0.28 0.28 97 1009.6
20260509160320 54 137 0.9 3.5 0.02 0.28 0.28 98 1009.6
20260509155818 54 291 0.9 4.3 0.02 0.28 0.28 98 1009.6
20260509155317 53 107 0.0 5.2 0.01 0.27 0.27 97 1009.5
20260509154818 53 171 0.9 5.2 0.02 0.27 0.27 97 1009.5
20260509154337 53 260 0.0 3.5 0.02 0.27 0.27 97 1009.5
20260509153814 53 116 0.0 1.7 0.03 0.27 0.27 97 1009.2
20260509153317 53 151 0.0 4.3 0.03 0.27 0.27 98 1009.4
20260509152817 53 220 0.9 4.3 0.04 0.27 0.27 98 1009.2
20260509152315 53 120 0.0 4.3 0.05 0.27 0.27 97 1009.1
20260509151818 52 142 0.0 4.3 0.05 0.27 0.27 97 1009.5
20260509151337 52 288 0.0 4.3 0.05 0.27 0.27 97 1009.7
20260509150817 52 205 0.9 4.3 0.06 0.27 0.27 97 1009.8
20260509150317 52 245 0.0 6.1 0.06 0.26 0.26 97 1009.8
20260509145819 52 211 0.0 6.1 0.07 0.26 0.26 97 1009.9
20260509145318 52 234 0.0 3.5 0.08 0.26 0.26 97 1010.0
20260509144820 52 295 0.0 6.1 0.07 0.25 0.25 97 1010.0
20260509144320 52 325 2.6 6.1 0.08 0.25 0.25 97 1010.0
20260509143819 52 15 0.9 4.3 0.08 0.24 0.24 97 1009.9
20260509143321 52 165 0.9 4.3 0.08 0.24 0.24 97 1009.8
20260509142820 52 277 0.9 4.3 0.08 0.23 0.23 97 1009.7
20260509142320 52 301 0.0 3.5 0.08 0.22 0.22 97 1009.7
20260509141842 52 234 0.0 3.5 0.09 0.22 0.22 97 1009.9
20260509141339 52 121 0.0 3.5 0.09 0.22 0.22 97 1010.0
20260509140818 52 319 0.0 4.3 0.09 0.21 0.21 97 1010.0
20260509140339 52 94 0.9 3.5 0.08 0.20 0.20 97 1010.1
20260509135817 52 72 0.0 4.3 0.08 0.19 0.19 97 1010.0
20260509135318 52 234 0.9 5.2 0.08 0.18 0.18 96 1010.0
20260509134818 52 242 0.9 6.1 0.09 0.18 0.18 96 1010.1
20260509134317 52 272 1.7 6.1 0.09 0.17 0.17 96 1010.1
20260509133815 52 263 1.7 5.2 0.08 0.16 0.16 96 1010.1
20260509133317 52 296 0.9 4.3 0.09 0.16 0.16 96 1010.1
20260509132817 52 127 0.9 5.2 0.08 0.15 0.15 96 1010.2
20260509132318 52 154 0.9 5.2 0.08 0.14 0.14 96 1010.2
20260509131820 52 129 0.0 1.7 0.07 0.13 0.13 96 1010.2
20260509131319 52 163 0.9 1.7 0.07 0.13 0.13 96 1010.3
20260509130819 52 295 0.0 3.5 0.06 0.12 0.12 96 1010.3
20260509130320 52 235 0.0 3.5 0.06 0.12 0.12 96 1010.3
20260509125822 52 248 0.0 1.7 0.05 0.11 0.11 96 1010.4
20260509125320 52 231 0.0 3.5 0.04 0.10 0.10 96 1010.4
20260509124823 52 221 0.0 3.5 0.03 0.09 0.09 96 1010.4
20260509124341 52 259 0.0 1.7 0.02 0.08 0.08 96 1010.4
20260509123820 51 171 0.9 4.3 0.02 0.07 0.07 96 1010.4
20260509123323 51 279 1.7 4.3 0.02 0.07 0.07 96 1010.5
20260509122824 51 278 0.0 4.3 0.02 0.07 0.07 96 1010.4
20260509122324 51 235 0.0 4.3 0.01 0.06 0.06 95 1010.5
20260509121824 51 327 0.0 4.3 0.01 0.06 0.06 95 1010.4
20260509121324 51 227 0.9 4.3 0.01 0.06 0.06 95 1010.5
20260509120824 51 47 0.0 1.7 0.01 0.06 0.06 95 1010.6
20260509120341 51 46 0.0 0.9 0.01 0.06 0.06 95 1010.6
20260509115818 51 61 0.0 3.5 0.02 0.06 0.06 95 1010.6
20260509115319 51 83 0.9 3.5 0.02 0.06 0.06 95 1010.5
20260509114823 51 201 0.0 1.7 0.02 0.06 0.06 95 1010.5
20260509114323 51 204 0.0 1.7 0.02 0.06 0.06 95 1010.5
20260509113844 51 227 0.0 3.5 0.01 0.05 0.05 95 1010.4
20260509113345 51 227 0.0 3.5 0.01 0.05 0.05 95 1010.3
20260509112822 51 309 0.0 1.7 0.01 0.05 0.05 95 1010.3
20260509112324 51 57 0.0 1.7 0.02 0.05 0.05 94 1010.3
20260509111323 51 292 0.0 3.5 0.02 0.05 0.05 94 1010.3
20260509110842 51 292 0.0 0.9 0.02 0.05 0.05 94 1010.3
20260509110320 51 273 0.0 1.7 0.03 0.05 0.05 94 1010.2
20260509105818 51 273 0.0 1.7 0.02 0.04 0.04 93 1010.2
20260509105317 51 274 0.0 1.7 0.02 0.04 0.04 93 1010.2
20260509104839 51 279 0.0 1.7 0.02 0.04 0.04 93 1010.2
20260509104316 51 275 0.9 1.7 0.02 0.04 0.04 93 1010.2
20260509103817 51 245 0.0 3.5 0.02 0.04 0.04 93 1010.1
20260509103319 51 296 0.9 3.5 0.02 0.04 0.04 93 1010.2
20260509102817 52 348 0.0 4.3 0.02 0.04 0.04 92 1010.2
20260509102316 52 258 0.0 4.3 0.01 0.03 0.03 92 1010.2
20260509101817 52 107 0.9 4.3 0.01 0.03 0.03 92 1010.3
20260509101335 52 193 0.0 4.3 0.02 0.03 0.03 92 1010.2
20260509100833 52 128 0.0 4.3 0.02 0.03 0.03 92 1010.2
20260509100316 52 272 0.9 3.5 0.01 0.02 0.02 92 1010.3
20260509095816 52 256 0.9 1.7 0.01 0.02 0.02 91 1010.3
20260509095317 52 258 0.0 3.5 0.01 0.02 0.02 91 1010.3
20260509094820 52 46 0.0 4.3 0.01 0.02 0.02 91 1010.3
20260509094319 52 273 0.9 4.3 0.01 0.02 0.02 91 1010.3
20260509093818 52 246 0.0 4.3 0.02 0.02 0.02 91 1010.3
20260509093319 52 225 0.9 6.1 0.02 0.02 0.02 91 1010.4
20260509092819 52 280 0.9 7.8 0.02 0.02 0.02 92 1010.5
20260509092321 52 277 0.9 7.8 0.02 0.02 0.02 92 1010.5
20260509091823 52 161 2.6 5.2 0.02 0.02 0.02 92 1010.6
20260509091323 51 57 0.0 7.0 0.01 0.01 0.01 93 1010.7
20260509090843 51 288 2.6 7.0 0.01 0.01 0.01 93 1010.7
20260509090323 51 227 0.9 6.1 0.01 0.01 0.01 94 1010.7
20260509085822 51 293 0.0 3.5 0.01 0.01 0.01 95 1010.7
20260509085322 51 278 0.9 3.5 0.01 0.01 0.01 95 1010.8
20260509084824 51 238 0.9 3.5 0.01 0.01 0.01 95 1010.8
20260509084323 51 277 0.0 1.7 0.01 0.01 0.01 95 1010.7
20260509083845 51 259 0.0 0.9 0.00 0.00 0.00 95 1010.8
20260509083325 51 261 0.0 0.9 0.00 0.00 0.00 95 1010.8
20260509082826 50 261 0.0 0.9 0.00 0.00 0.00 95 1010.8
20260509082325 50 261 0.0 0.0 0.00 0.00 0.00 95 1010.7
20260509081828 50 261 0.0 0.0 0.00 0.00 0.00 95 1010.6
20260509081326 50 261 0.0 0.0 0.00 0.00 0.00 94 1010.5
20260509080825 50 261 0.0 0.9 0.00 0.00 0.00 94 1010.3
20260509080348 50 261 0.0 1.7 0.00 0.00 0.00 94 1010.2
20260509075846 50 260 0.0 1.7 0.00 0.00 0.00 94 1010.2
20260509075325 50 261 0.0 0.0 0.00 0.00 0.00 94 1010.0
20260509074829 50 261 0.0 1.7 0.00 0.00 0.00 94 1010.0
20260509074329 50 261 0.9 3.5 0.00 0.00 0.00 94 1009.9
20260509073829 50 261 0.9 3.5 0.00 0.00 0.00 93 1009.9
20260509073331 50 263 0.0 0.9 0.00 0.00 0.00 93 1009.7
20260509072830 50 262 0.0 0.0 0.00 0.00 0.00 93 1009.5
20260509072330 50 262 0.0 0.0 0.00 0.00 0.00 93 1009.5
20260509071830 50 262 0.0 0.0 0.00 0.00 0.00 93 1009.4
20260509071329 50 262 0.0 1.7 0.00 0.00 0.00 92 1009.4
20260509070828 50 262 0.9 1.7 0.00 0.00 0.00 92 1009.6
20260509070329 50 53 0.0 0.0 0.00 0.00 0.00 92 1009.5
20260509065828 50 53 0.0 0.0 0.00 0.00 0.00 92 1009.6
20260509065326 50 53 0.0 0.0 0.00 0.00 0.00 92 1009.6
20260509064830 50 53 0.0 0.0 0.00 0.00 0.00 92 1009.7
20260509064328 50 53 0.0 0.0 0.00 0.00 0.00 92 1009.7
20260509063829 50 53 0.0 0.0 0.00 0.00 0.00 92 1009.7
20260509063329 50 53 0.0 0.0 0.00 0.00 0.00 92 1009.8
20260509062827 50 53 0.0 0.0 0.00 0.00 0.00 92 1009.9
20260509062346 50 53 0.0 0.0 0.00 0.00 0.00 92 1009.9
20260509061826 50 53 0.0 0.0 0.00 0.00 0.00 92 1010.0
20260509061324 51 53 0.0 0.0 0.00 0.00 0.00 92 1010.2
20260509060823 51 53 0.0 0.0 0.00 0.00 0.00 92 1010.3
20260509060325 50 53 0.0 0.0 0.00 0.00 0.00 93 1010.4
20260509055844 50 53 0.0 0.0 0.00 0.00 0.00 92 1010.6
20260509055324 50 53 0.0 0.0 0.00 0.00 0.00 92 1010.7
20260509054827 50 53 0.0 0.0 0.00 0.00 0.00 93 1010.8
20260509054326 50 53 0.0 0.0 0.00 0.00 0.00 92 1010.8
20260509053826 50 53 0.0 0.0 0.00 0.00 0.00 92 1010.7
20260509053327 50 53 0.0 0.0 0.00 0.00 0.00 92 1010.7
20260509052826 50 53 0.0 0.0 0.00 0.00 0.00 92 1010.8
20260509052328 50 53 0.0 0.0 0.00 0.00 0.00 92 1010.8
20260509051828 50 53 0.0 0.0 0.00 0.00 0.00 92 1011.0
20260509051328 50 53 0.0 0.0 0.00 0.00 0.00 92 1011.0
20260509050828 51 53 0.0 0.0 0.00 0.00 0.00 92 1011.0
20260509050329 51 53 0.0 0.0 0.00 0.00 0.00 92 1011.0
20260509045844 51 53 0.0 0.0 0.00 0.00 0.00 92 1011.0
20260509045324 51 53 0.0 0.0 0.00 0.00 0.00 92 1010.9
20260509044826 51 53 0.0 0.0 0.00 0.00 0.00 92 1010.9
20260509044325 51 53 0.0 0.0 0.00 0.00 0.00 92 1010.9
20260509043825 51 53 0.0 0.0 0.00 0.00 0.00 92 1010.8
20260509043326 51 53 0.0 0.0 0.00 0.00 0.00 91 1010.8
20260509042826 51 53 0.0 0.0 0.00 0.00 0.00 91 1010.9
20260509042327 51 53 0.0 0.0 0.00 0.00 0.00 91 1011.0
20260509041830 51 53 0.0 0.0 0.00 0.00 0.00 91 1011.2
20260509041350 51 53 0.0 0.0 0.00 0.00 0.00 91 1011.3
20260509040830 51 53 0.0 0.0 0.00 0.00 0.00 90 1011.3
20260509040329 51 53 0.0 0.0 0.00 0.00 0.00 90 1011.3
20260509035819 52 53 0.0 0.0 0.00 0.00 0.00 90 1011.3
20260509035319 52 53 0.0 0.0 0.00 0.00 0.00 90 1011.4
20260509034822 52 53 0.0 0.0 0.00 0.00 0.00 90 1011.5
20260509034320 52 53 0.0 0.0 0.00 0.00 0.00 90 1011.6
20260509033821 52 53 0.0 0.0 0.00 0.00 0.00 90 1011.7
20260509033323 52 53 0.0 0.0 0.00 0.00 0.00 90 1011.8
20260509032842 52 53 0.0 0.0 0.00 0.00 0.00 89 1011.9
20260509032320 52 53 0.0 0.0 0.00 0.00 0.00 89 1011.9
20260509031822 52 53 0.0 0.0 0.00 0.00 0.00 89 1012.0
20260509031343 52 53 0.0 0.0 0.00 0.00 0.00 89 1012.1
20260509030823 52 53 0.0 0.0 0.00 0.00 0.00 89 1012.2
20260509030344 52 53 0.0 0.0 0.00 0.00 0.00 88 1012.3
20260509025822 53 53 0.0 0.0 0.00 0.00 0.00 88 1012.3
20260509025323 53 53 0.0 0.0 0.00 0.00 0.00 87 1012.3
20260509024826 53 53 0.0 0.0 0.00 0.00 0.00 87 1012.3
20260509024326 53 53 0.0 0.0 0.00 0.00 0.00 87 1012.4
20260509023826 53 53 0.0 0.0 0.00 0.00 0.00 87 1012.3
20260509023329 53 53 0.0 0.9 0.00 0.00 0.00 86 1012.3
20260509022828 53 53 0.0 0.9 0.00 0.00 0.00 86 1012.4
20260509022327 53 53 0.0 0.0 0.00 0.00 0.00 86 1012.3
20260509021827 53 53 0.0 0.0 0.00 0.00 0.00 85 1012.2
20260509021327 53 53 0.0 0.0 0.00 0.00 0.00 85 1012.2
20260509020827 54 53 0.0 5.2 0.00 0.00 0.00 85 1012.1
20260509020330 54 50 1.7 5.2 0.00 0.00 0.00 84 1012.0
20260509015833 54 360 0.0 0.9 0.00 0.00 0.00 82 1012.1
20260509015334 54 360 0.0 0.9 0.00 0.00 0.00 80 1012.1
20260509014815 54 360 0.0 0.0 0.00 0.00 0.00 79 1011.9
20260509014315 55 360 0.0 0.0 0.00 0.00 0.00 78 1011.8
20260509013815 55 360 0.0 0.0 0.00 0.00 0.00 77 1011.8
20260509013317 55 360 0.0 0.0 0.00 0.00 0.00 77 1011.6
20260509012818 55 360 0.0 0.0 0.00 0.00 0.00 77 1011.6
20260509012318 55 360 0.0 0.0 0.00 0.00 0.00 76 1011.5
20260509011820 55 360 0.0 0.0 0.00 0.00 0.00 74 1011.4
20260509011318 55 360 0.0 0.0 0.00 0.00 0.00 73 1011.3
20260509010818 55 360 0.0 0.0 0.00 0.00 0.00 73 1011.2
20260509010321 55 360 0.0 0.0 0.00 0.00 0.00 73 1011.1
20260509005820 55 360 0.0 0.0 0.00 0.00 0.00 74 1011.0
20260509005320 55 360 0.0 0.0 0.00 0.00 0.00 73 1010.9
20260509004820 55 360 0.0 0.0 0.00 0.00 0.00 72 1010.8
20260509004321 56 360 0.0 0.0 0.00 0.00 0.00 72 1010.9
20260509003820 56 360 0.0 0.0 0.00 0.00 0.00 71 1010.8
20260509003322 56 360 0.0 0.0 0.00 0.00 0.00 71 1010.8
20260509002821 56 360 0.0 0.0 0.00 0.00 0.00 71 1010.9
20260509002322 56 360 0.0 0.0 0.00 0.00 0.00 70 1011.0
20260509001823 57 360 0.0 0.0 0.00 0.00 0.00 70 1010.9
20260509001324 57 360 0.0 0.0 0.00 0.00 0.00 70 1010.9
20260509000825 57 360 0.0 0.0 0.00 0.00 0.00 70 1010.9
20260509000326 57 360 0.0 0.0 0.00 0.00 0.00 71 1010.9
20260508235825 57 360 0.0 0.0 0.00 0.00 0.00 71 1010.9
20260508235324 58 360 0.0 0.0 0.00 0.00 0.00 71 1010.9
20260508234827 58 360 0.0 0.0 0.00 0.00 0.00 71 1011.1
20260508234327 58 360 0.0 0.9 0.00 0.00 0.00 71 1011.0
20260508233827 58 360 0.0 0.9 0.00 0.00 0.00 68 1011.1
20260508233329 59 321 0.0 0.0 0.00 0.00 0.00 69 1011.1
20260508232830 59 321 0.0 0.0 0.00 0.00 0.00 70 1011.1
20260508232329 59 321 0.0 0.0 0.00 0.00 0.00 70 1011.0
20260508231829 59 321 0.0 0.0 0.00 0.00 0.00 65 1011.0
20260508231330 59 321 0.0 0.0 0.00 0.00 0.00 65 1011.0
20260508230831 60 321 0.0 0.0 0.00 0.00 0.00 64 1011.1
20260508230333 60 321 0.0 0.0 0.00 0.00 0.00 64 1011.1
20260508225852 60 321 0.0 0.0 0.00 0.00 0.00 63 1011.1
20260508225351 60 321 0.0 0.0 0.00 0.00 0.00 63 1011.0
20260508224850 60 321 0.0 0.0 0.00 0.00 0.00 63 1011.1
20260508224330 60 321 0.0 0.0 0.00 0.00 0.00 63 1011.1
20260508223850 60 321 0.0 0.0 0.00 0.00 0.00 62 1011.0
20260508223330 60 321 0.0 0.9 0.00 0.00 0.00 63 1011.1
20260508222829 60 321 0.0 0.9 0.00 0.00 0.00 63 1011.0
20260508221833 60 321 0.0 0.0 0.00 0.00 0.00 63 1010.9
20260508221331 60 316 0.0 0.0 0.00 0.00 0.00 63 1010.9
20260508220831 60 281 0.0 0.0 0.00 0.00 0.00 62 1011.0
20260508220332 60 281 0.0 0.0 0.00 0.00 0.00 60 1011.0
20260508215852 60 281 0.0 0.0 0.00 0.00 0.00 60 1011.0
20260508215350 60 281 0.0 0.0 0.00 0.00 0.00 59 1011.1
20260508214832 60 281 0.0 0.0 0.00 0.00 0.00 60 1011.1
20260508214329 60 281 0.0 0.9 0.00 0.00 0.00 57 1011.1
20260508213831 60 281 0.0 0.9 0.00 0.00 0.00 57 1011.2
20260508213315 60 283 0.0 0.9 0.00 0.00 0.00 58 1011.2